JR4VEV-13 Weather Reports


time (UTC)temp
C
wind
direction
speed
KPH
gust
KPH
rain 1hr
cm
rain 24hr
cm
rain mn
cm
humidity
%
barometer
mb
20260504130237 10 276 0.0 0.0 0.00 0.03 0.03 89 1017.8
20260504120235 10 261 0.0 1.6 0.00 0.03 0.03 89 1017.0
20260504110236 11 289 0.0 3.2 0.00 0.03 0.03 88 1016.0
20260504100234 13 282 3.2 4.8 0.00 0.03 0.03 79 1014.5
20260504081236 16 271 11.3 14.5 0.00 0.03 0.03 65 1013.0
20260504080235 16 260 16.1 19.3 0.00 0.03 0.03 65 1012.6
20260504070235 17 270 16.1 24.1 0.00 0.03 0.03 59 1011.4
20260504060234 18 262 20.9 25.7 0.00 0.03 0.03 48 1010.4
20260504050233 20 271 11.3 27.4 0.00 0.03 0.03 41 1009.1
20260504045233 20 270 8.0 32.2 0.00 0.03 0.03 41 1009.0
20260503214449 38 119 90.1 3.2 0.00 0.00 0.00 100
20260503213449 15 276 1.6 3.2 0.00 0.00 0.00 89 1005.2
20260503212448 15 319 3.2 6.4 0.00 0.00 0.00 89 1004.8
20260503211448 14 252 6.4 6.4 0.00 0.00 0.00 91 1004.8
20260503210449 13 282 0.0 6.4 0.00 0.00 0.00 92 1004.6
20260503205449 14 285 4.8 8.0 0.00 0.00 0.00 90 1004.6
20260503204449 13 300 3.2 8.0 0.00 0.00 0.00 91 1004.3
20260503203448 13 278 4.8 9.7 0.00 0.00 0.00 90 1004.1
20260503202448 14 243 3.2 12.9 0.00 0.00 0.00 89 1003.9
20260503201450 13 283 4.8 9.7 0.00 0.00 0.00 90 1003.9
20260503200448 14 352 1.6 11.3 0.00 0.00 0.00 88 1004.0
20260503195448 14 302 3.2 14.5 0.00 0.00 0.00 90 1004.0
20260503194448 13 257 4.8 11.3 0.00 0.00 0.00 94 1003.9
20260503193448 13 264 1.6 8.0 0.00 0.00 0.00 92 1003.7
20260503192449 13 34 0.0 3.2 0.00 0.00 0.00 95 1003.5
20260503191448 13 268 1.6 6.4 0.00 0.00 0.00 94 1003.4
20260503190448 13 291 0.0 4.8 0.00 0.00 0.00 93 1003.5
20260503185449 14 291 0.0 4.8 0.00 0.00 0.00 93 1003.4
20260503184448 14 263 4.8 3.2 0.00 0.00 0.00 91 1003.3
20260503183448 15 247 0.0 4.8 0.00 0.00 0.00 90 1002.9
20260503182449 15 297 3.2 19.3 0.00 0.00 0.00 88 1002.6
20260503181449 15 237 3.2 11.3 0.00 0.00 0.00 90 1002.7
20260503180448 15 300 1.6 11.3 0.00 0.00 0.00 90 1002.6
20260503175448 15 300 1.6 6.4 0.00 0.00 0.00 91 1002.8
20260503174449 15 272 1.6 11.3 0.00 0.00 0.00 92 1002.6
20260503173449 15 298 1.6 9.7 0.00 0.00 0.00 93 1002.4
20260503172449 15 260 0.0 8.0 0.00 0.00 0.00 94 1002.0
20260503171449 15 245 8.0 6.4 0.00 0.00 0.00 97 1002.3
20260503170449 15 290 1.6 6.4 0.00 0.00 0.00 98 1002.0
20260503150448 16 76 0.0 0.0 0.00 1.83 1.83 98 1001.2